Time,TemperatureF,DewpointF,PressureIn,WindDirection,WindDirectionDegrees,WindSpeedMPH,WindSpeedGustMPH,Humidity,HourlyPrecipIn,Conditions,Clouds,dailyrainin,SoftwareType,DateUTC
2013-06-29 00:03:00,68.9,53.0,29.81,North,357,2.0,3.0,57,0.00,,,0.00,weatherlink.com 1.10,2013-06-29 06:03:00,
2013-06-29 00:18:00,69.4,52.0,29.81,NW,326,2.0,4.0,55,0.00,,,0.00,weatherlink.com 1.10,2013-06-29 06:18:00,
2013-06-29 00:34:00,68.5,52.0,29.81,NW,325,0.0,1.0,56,0.00,,,0.00,weatherlink.com 1.10,2013-06-29 06:34:00,
2013-06-29 00:59:00,67.0,52.0,29.82,NNW,338,0.0,2.0,59,0.00,,,0.00,weatherlink.com 1.10,2013-06-29 06:59:00,
2013-06-29 01:19:00,66.3,52.0,29.83,SE,128,0.0,1.0,61,0.00,,,0.00,weatherlink.com 1.10,2013-06-29 07:19:00,
2013-06-29 01:34:00,66.6,53.0,29.82,East,94,0.0,0.0,61,0.00,,,0.00,weatherlink.com 1.10,2013-06-29 07:34:00,
2013-06-29 01:49:00,67.2,52.0,29.82,NE,41,0.0,1.0,59,0.00,,,0.00,weatherlink.com 1.10,2013-06-29 07:49:00,
2013-06-29 02:04:00,67.0,52.0,29.82,SSE,162,0.0,0.0,58,0.00,,,0.00,weatherlink.com 1.10,2013-06-29 08:04:00,
2013-06-29 02:19:00,66.9,52.0,29.82,North,353,0.0,2.0,60,0.00,,,0.00,weatherlink.com 1.10,2013-06-29 08:19:00,
2013-06-29 02:34:00,66.8,55.0,29.82,WNW,295,0.0,0.0,67,0.00,,,0.00,weatherlink.com 1.10,2013-06-29 08:34:00,
2013-06-29 02:49:00,66.8,53.0,29.82,NNE,26,0.0,1.0,61,0.00,,,0.00,weatherlink.com 1.10,2013-06-29 08:49:00,
2013-06-29 03:04:00,66.7,53.0,29.81,NNE,12,0.0,1.0,62,0.00,,,0.00,weatherlink.com 1.10,2013-06-29 09:04:00,
2013-06-29 03:19:00,66.7,53.0,29.81,NNE,29,0.0,1.0,61,0.00,,,0.00,weatherlink.com 1.10,2013-06-29 09:19:00,
2013-06-29 03:34:00,66.5,53.0,29.81,North,351,0.0,2.0,63,0.00,,,0.00,weatherlink.com 1.10,2013-06-29 09:34:00,
2013-06-29 03:49:00,66.0,52.0,29.80,North,349,0.0,1.0,62,0.00,,,0.00,weatherlink.com 1.10,2013-06-29 09:49:00,
2013-06-29 04:04:00,65.6,53.0,29.79,SSE,148,0.0,2.0,64,0.00,,,0.00,weatherlink.com 1.10,2013-06-29 10:04:00,
2013-06-29 04:19:00,64.7,53.0,29.80,SE,138,0.0,1.0,66,0.00,,,0.00,weatherlink.com 1.10,2013-06-29 10:19:00,
2013-06-29 04:34:00,63.7,53.0,29.79,SE,142,0.0,1.0,68,0.00,,,0.00,weatherlink.com 1.10,2013-06-29 10:34:00,
2013-06-29 04:49:00,63.2,54.0,29.80,West,266,0.0,0.0,71,0.00,,,0.00,weatherlink.com 1.10,2013-06-29 10:49:00,
2013-06-29 05:04:00,63.0,55.0,29.80,West,281,0.0,0.0,74,0.00,,,0.00,weatherlink.com 1.10,2013-06-29 11:04:00,
2013-06-29 05:19:00,62.1,55.0,29.80,West,271,0.0,0.0,77,0.00,,,0.00,weatherlink.com 1.10,2013-06-29 11:19:00,
2013-06-29 05:34:00,61.7,54.0,29.80,West,264,0.0,0.0,77,0.00,,,0.00,weatherlink.com 1.10,2013-06-29 11:34:00,
2013-06-29 05:49:00,61.8,55.0,29.80,West,266,0.0,0.0,78,0.00,,,0.00,weatherlink.com 1.10,2013-06-29 11:49:00,
2013-06-29 06:04:00,62.4,55.0,29.80,West,266,0.0,0.0,78,0.00,,,0.00,weatherlink.com 1.10,2013-06-29 12:04:00,
2013-06-29 06:19:00,63.6,56.0,29.80,West,264,0.0,0.0,76,0.00,,,0.00,weatherlink.com 1.10,2013-06-29 12:19:00,
2013-06-29 06:34:00,63.9,56.0,29.80,WSW,257,0.0,0.0,75,0.00,,,0.00,weatherlink.com 1.10,2013-06-29 12:34:00,
2013-06-29 06:49:00,63.3,55.0,29.80,WSW,256,0.0,0.0,75,0.00,,,0.00,weatherlink.com 1.10,2013-06-29 12:49:00,
2013-06-29 07:04:00,64.0,55.0,29.80,WSW,256,0.0,1.0,73,0.00,,,0.00,weatherlink.com 1.10,2013-06-29 13:04:00,
2013-06-29 07:19:00,65.9,55.0,29.80,WSW,242,0.0,1.0,68,0.00,,,0.00,weatherlink.com 1.10,2013-06-29 13:19:00,
2013-06-29 07:34:00,68.1,55.0,29.80,WSW,239,0.0,1.0,63,0.00,,,0.00,weatherlink.com 1.10,2013-06-29 13:34:00,
2013-06-29 07:49:00,70.2,54.0,29.80,West,281,0.0,0.0,57,0.00,,,0.00,weatherlink.com 1.10,2013-06-29 13:49:00,
2013-06-29 08:04:00,72.2,54.0,29.80,WSW,240,0.0,1.0,53,0.00,,,0.00,weatherlink.com 1.10,2013-06-29 14:04:00,
2013-06-29 08:19:00,72.8,55.0,29.80,WSW,248,0.0,0.0,53,0.00,,,0.00,weatherlink.com 1.10,2013-06-29 14:19:00,
2013-06-29 08:35:00,74.2,55.0,29.79,WSW,240,0.0,2.0,51,0.00,,,0.00,weatherlink.com 1.10,2013-06-29 14:35:00,
2013-06-29 08:50:00,75.3,55.0,29.79,WNW,288,0.0,1.0,50,0.00,,,0.00,weatherlink.com 1.10,2013-06-29 14:50:00,
2013-06-29 09:05:00,75.9,56.0,29.79,West,263,0.0,1.0,50,0.00,,,0.00,weatherlink.com 1.10,2013-06-29 15:05:00,
2013-06-29 09:20:00,77.0,56.0,29.79,SW,221,0.0,1.0,48,0.00,,,0.00,weatherlink.com 1.10,2013-06-29 15:20:00,
2013-06-29 09:35:00,79.6,55.0,29.78,North,1,2.0,3.0,43,0.00,,,0.00,weatherlink.com 1.10,2013-06-29 15:35:00,
2013-06-29 09:50:00,80.8,56.0,29.78,NW,323,1.0,3.0,42,0.00,,,0.00,weatherlink.com 1.10,2013-06-29 15:50:00,
2013-06-29 10:05:00,82.1,56.0,29.77,West,264,0.0,3.0,41,0.00,,,0.00,weatherlink.com 1.10,2013-06-29 16:05:00,
2013-06-29 10:20:00,84.3,57.0,29.77,WSW,243,0.0,2.0,39,0.00,,,0.00,weatherlink.com 1.10,2013-06-29 16:20:00,
2013-06-29 10:35:00,83.6,55.0,29.77,WSW,257,0.0,1.0,38,0.00,,,0.00,weatherlink.com 1.10,2013-06-29 16:35:00,
2013-06-29 10:50:00,85.8,55.0,29.76,NW,308,0.0,5.0,35,0.00,,,0.00,weatherlink.com 1.10,2013-06-29 16:50:00,
2013-06-29 11:05:00,86.8,54.0,29.77,West,264,3.0,4.0,33,0.00,,,0.00,weatherlink.com 1.10,2013-06-29 17:05:00,
2013-06-29 11:20:00,87.9,51.0,29.77,North,356,1.0,6.0,28,0.00,,,0.00,weatherlink.com 1.10,2013-06-29 17:20:00,
2013-06-29 11:35:00,88.9,52.0,29.76,West,276,3.0,8.0,28,0.00,,,0.00,weatherlink.com 1.10,2013-06-29 17:35:00,
2013-06-29 11:50:00,86.7,52.0,29.76,WNW,301,0.0,6.0,30,0.00,,,0.00,weatherlink.com 1.10,2013-06-29 17:50:00,
2013-06-29 12:05:00,86.5,52.0,29.75,NW,314,0.0,8.0,31,0.00,,,0.00,weatherlink.com 1.10,2013-06-29 18:05:00,
2013-06-29 12:20:00,87.7,50.0,29.75,NW,320,5.0,15.0,27,0.00,,,0.00,weatherlink.com 1.10,2013-06-29 18:20:00,
2013-06-29 12:35:00,89.1,50.0,29.74,NE,43,8.0,11.0,26,0.00,,,0.00,weatherlink.com 1.10,2013-06-29 18:35:00,
2013-06-29 12:50:00,89.8,51.0,29.74,NNE,29,3.0,9.0,26,0.00,,,0.00,weatherlink.com 1.10,2013-06-29 18:50:00,
2013-06-29 13:05:00,89.9,51.0,29.73,WNW,302,0.0,9.0,26,0.00,,,0.00,weatherlink.com 1.10,2013-06-29 19:05:00,
2013-06-29 13:20:00,90.7,49.0,29.73,NNW,335,4.0,8.0,24,0.00,,,0.00,weatherlink.com 1.10,2013-06-29 19:20:00,
2013-06-29 13:35:00,88.0,49.0,29.72,NE,34,8.0,8.0,26,0.00,,,0.00,weatherlink.com 1.10,2013-06-29 19:35:00,
2013-06-29 13:50:00,90.2,50.0,29.72,NE,43,8.0,14.0,25,0.00,,,0.00,weatherlink.com 1.10,2013-06-29 19:50:00,
2013-06-29 14:05:00,92.1,49.0,29.71,NNE,23,7.0,11.0,23,0.00,,,0.00,weatherlink.com 1.10,2013-06-29 20:05:00,
2013-06-29 14:20:00,90.4,49.0,29.71,NNE,29,5.0,13.0,24,0.00,,,0.00,weatherlink.com 1.10,2013-06-29 20:20:00,
2013-06-29 14:35:00,90.8,49.0,29.70,NNW,347,8.0,12.0,24,0.00,,,0.00,weatherlink.com 1.10,2013-06-29 20:35:00,
2013-06-29 14:50:00,91.1,48.0,29.69,WNW,287,10.0,13.0,23,0.00,,,0.00,weatherlink.com 1.10,2013-06-29 20:50:00,
2013-06-29 15:05:00,90.3,48.0,29.69,NW,321,8.0,15.0,23,0.00,,,0.00,weatherlink.com 1.10,2013-06-29 21:05:00,
2013-06-29 15:20:00,90.4,48.0,29.69,NE,34,11.0,17.0,23,0.00,,,0.00,weatherlink.com 1.10,2013-06-29 21:20:00,
2013-06-29 15:36:00,91.2,47.0,29.69,NW,318,2.0,18.0,22,0.00,,,0.00,weatherlink.com 1.10,2013-06-29 21:36:00,
2013-06-29 15:51:00,91.6,48.0,29.68,NNW,338,8.0,15.0,22,0.00,,,0.00,weatherlink.com 1.10,2013-06-29 21:51:00,
2013-06-29 16:06:00,91.2,47.0,29.68,NE,39,8.0,14.0,22,0.00,,,0.00,weatherlink.com 1.10,2013-06-29 22:06:00,
2013-06-29 16:21:00,91.0,47.0,29.69,ENE,64,5.0,16.0,22,0.00,,,0.00,weatherlink.com 1.10,2013-06-29 22:21:00,
2013-06-29 16:36:00,90.2,48.0,29.68,North,4,5.0,15.0,23,0.00,,,0.00,weatherlink.com 1.10,2013-06-29 22:36:00,
2013-06-29 16:51:00,91.5,46.0,29.68,NNE,28,2.0,17.0,21,0.00,,,0.00,weatherlink.com 1.10,2013-06-29 22:51:00,
2013-06-29 17:06:00,90.6,46.0,29.68,NNW,331,9.0,17.0,21,0.00,,,0.00,weatherlink.com 1.10,2013-06-29 23:06:00,
2013-06-29 17:21:00,90.3,44.0,29.67,NW,317,9.0,14.0,20,0.00,,,0.00,weatherlink.com 1.10,2013-06-29 23:21:00,
2013-06-29 17:36:00,90.2,44.0,29.68,ENE,60,6.0,22.0,20,0.00,,,0.00,weatherlink.com 1.10,2013-06-29 23:36:00,
2013-06-29 17:51:00,90.4,44.0,29.67,NW,307,6.0,15.0,20,0.00,,,0.00,weatherlink.com 1.10,2013-06-29 23:51:00,
2013-06-29 18:06:00,89.8,51.0,29.67,North,9,12.0,16.0,26,0.00,,,0.00,weatherlink.com 1.10,2013-06-30 00:06:00,
2013-06-29 18:21:00,90.6,49.0,29.67,East,82,3.0,10.0,24,0.00,,,0.00,weatherlink.com 1.10,2013-06-30 00:21:00,
2013-06-29 18:36:00,91.0,52.0,29.68,South,180,5.0,13.0,26,0.00,,,0.00,weatherlink.com 1.10,2013-06-30 00:36:00,
2013-06-29 18:51:00,88.3,53.0,29.67,NW,309,8.0,17.0,30,0.00,,,0.00,weatherlink.com 1.10,2013-06-30 00:51:00,
2013-06-29 19:07:00,86.6,53.0,29.69,East,80,8.0,19.0,32,0.00,,,0.00,weatherlink.com 1.10,2013-06-30 01:07:00,
2013-06-29 19:21:00,86.8,54.0,29.69,West,281,3.0,14.0,33,0.00,,,0.00,weatherlink.com 1.10,2013-06-30 01:21:00,
2013-06-29 19:36:00,84.9,54.0,29.70,West,277,3.0,12.0,35,0.00,,,0.00,weatherlink.com 1.10,2013-06-30 01:36:00,
2013-06-29 19:51:00,82.2,53.0,29.71,SSW,207,9.0,16.0,37,0.00,,,0.00,weatherlink.com 1.10,2013-06-30 01:51:00,
2013-06-29 20:06:00,79.2,53.0,29.71,WSW,247,4.0,16.0,41,0.00,,,0.00,weatherlink.com 1.10,2013-06-30 02:06:00,
2013-06-29 20:21:00,77.2,53.0,29.71,SSE,148,3.0,13.0,43,0.00,,,0.00,weatherlink.com 1.10,2013-06-30 02:21:00,
2013-06-29 20:36:00,75.8,53.0,29.72,SE,142,1.0,14.0,45,0.00,,,0.00,weatherlink.com 1.10,2013-06-30 02:36:00,
2013-06-29 20:51:00,74.4,53.0,29.73,WNW,288,3.0,9.0,47,0.00,,,0.00,weatherlink.com 1.10,2013-06-30 02:51:00,
2013-06-29 21:06:00,73.5,52.0,29.73,SW,219,2.0,10.0,48,0.00,,,0.00,weatherlink.com 1.10,2013-06-30 03:06:00,
2013-06-29 21:21:00,72.4,53.0,29.75,NNW,345,2.0,10.0,50,0.00,,,0.00,weatherlink.com 1.10,2013-06-30 03:21:00,
2013-06-29 21:36:00,71.6,52.0,29.76,SE,143,3.0,12.0,51,0.00,,,0.00,weatherlink.com 1.10,2013-06-30 03:36:00,
2013-06-29 21:51:00,71.0,52.0,29.77,SE,143,4.0,8.0,52,0.00,,,0.00,weatherlink.com 1.10,2013-06-30 03:51:00,
2013-06-29 22:06:00,70.1,52.0,29.78,NW,311,1.0,6.0,53,0.00,,,0.00,weatherlink.com 1.10,2013-06-30 04:06:00,
2013-06-29 22:21:00,69.1,52.0,29.78,SW,214,2.0,5.0,54,0.00,,,0.00,weatherlink.com 1.10,2013-06-30 04:21:00,
2013-06-29 22:36:00,68.3,52.0,29.79,SSE,162,0.0,3.0,57,0.00,,,0.00,weatherlink.com 1.10,2013-06-30 04:36:00,
2013-06-29 22:51:00,67.4,51.0,29.80,WNW,290,0.0,4.0,57,0.00,,,0.00,weatherlink.com 1.10,2013-06-30 04:51:00,
2013-06-29 23:06:00,66.8,51.0,29.80,SSW,207,2.0,2.0,57,0.00,,,0.00,weatherlink.com 1.10,2013-06-30 05:06:00,
2013-06-29 23:21:00,66.4,51.0,29.81,SSE,152,0.0,3.0,57,0.00,,,0.00,weatherlink.com 1.10,2013-06-30 05:21:00,
2013-06-29 23:36:00,65.9,50.0,29.81,SE,124,1.0,6.0,56,0.00,,,0.00,weatherlink.com 1.10,2013-06-30 05:36:00,
2013-06-29 23:51:00,65.3,49.0,29.83,SE,131,0.0,1.0,56,0.00,,,0.00,weatherlink.com 1.10,2013-06-30 05:51:00,